FW1404 Weather Reports


time (UTC)temp
C
wind
direction
speed
KPH
gust
KPH
rain 1hr
cm
rain 24hr
cm
rain mn
cm
humidity
%
barometer
mb
20260502163618 25 210 14.5 16.1 0.00 0.00 0.00 32 1016.9
20260502162832 25 266 4.8 19.3 0.00 0.00 0.00 32 1017.0
20260502162332 25 218 9.7 19.3 0.00 0.00 0.00 32 1017.0
20260502161832 25 235 11.3 14.5 0.00 0.00 0.00 33 1017.0
20260502161331 25 204 8.0 14.5 0.00 0.00 0.00 33 1017.1
20260502160834 25 238 6.4 11.3 0.00 0.00 0.00 33 1017.1
20260502160333 25 213 3.2 8.0 0.00 0.00 0.00 32 1017.2
20260502152307 25 234 8.0 11.3 0.00 0.00 0.00 32 1017.8
20260502151809 25 294 6.4 11.3 0.00 0.00 0.00 31 1017.8
20260502151550 25 245 8.0 11.3 0.00 0.00 0.00 31 1017.9
20260502150807 25 191 4.8 11.3 0.00 0.00 0.00 30 1018.0
20260502150307 25 186 3.2 16.1 0.00 0.00 0.00 30 1018.1
20260502130545 26 204 4.8 14.5 0.00 0.00 0.00 30 1019.7
20260502123806 26 201 6.4 20.9 0.00 0.00 0.00 30 1020.1
20260502123305 25 221 8.0 19.3 0.00 0.00 0.00 31 1020.1
20260502122803 26 206 9.7 19.3 0.00 0.00 0.00 30 1020.2
20260502122306 26 182 8.0 11.3 0.00 0.00 0.00 31 1020.3
20260502121804 25 203 8.0 14.5 0.00 0.00 0.00 31 1020.3
20260502121556 25 135 8.0 19.3 0.00 0.00 0.00 30 1020.3
20260502120805 25 194 9.7 19.3 0.00 0.00 0.00 30 1020.4
20260502120549 25 160 4.8 14.5 0.00 0.00 0.00 30 1020.5
20260502115804 25 198 6.4 17.7 0.00 0.00 0.00 31 1020.6
20260502115306 25 193 12.9 17.7 0.00 0.00 0.00 30 1020.6
20260502114804 25 126 9.7 16.1 0.00 0.00 0.00 30 1020.7
20260502114305 26 208 8.0 19.3 0.00 0.00 0.00 30 1020.7
20260502113805 26 197 11.3 19.3 0.00 0.00 0.00 31 1020.8
20260502113305 25 237 3.2 8.0 0.00 0.00 0.00 31 1020.9
20260502112805 25 165 3.2 17.7 0.00 0.00 0.00 31 1021.0
20260502112305 25 146 8.0 17.7 0.00 0.00 0.00 31 1021.0
20260502112051 25 143 6.4 16.1 0.00 0.00 0.00 32 1021.1
20260502111303 25 225 4.8 20.9 0.00 0.00 0.00 31 1021.2
20260502110802 25 201 16.1 20.9 0.00 0.00 0.00 31 1021.3
20260502110303 25 213 8.0 17.7 0.00 0.00 0.00 31 1021.3
20260502105803 25 235 8.0 17.7 0.00 0.00 0.00 31 1021.4
20260502105305 25 224 6.4 14.5 0.00 0.00 0.00 32 1021.3
20260502104804 25 159 4.8 16.1 0.00 0.00 0.00 32 1021.5
20260502104303 25 148 8.0 20.9 0.00 0.00 0.00 32 1021.6
20260502103800 25 241 11.3 22.5 0.00 0.00 0.00 31 1021.6
20260502103302 25 201 12.9 22.5 0.00 0.00 0.00 33 1021.6
20260502102800 25 193 3.2 9.7 0.00 0.00 0.00 35 1021.7
20260502102301 25 191 8.0 14.5 0.00 0.00 0.00 34 1021.8
20260502101802 24 215 4.8 25.7 0.00 0.00 0.00 32 1021.8
20260502101301 25 167 16.1 25.7 0.00 0.00 0.00 32 1022.0
20260502100802 25 135 6.4 16.1 0.00 0.00 0.00 33 1022.0
20260502100302 25 320 4.8 9.7 0.00 0.00 0.00 33 1021.9
20260502091302 24 207 9.7 17.7 0.00 0.00 0.00 35 1022.7
20260502090800 23 163 3.2 14.5 0.00 0.00 0.00 35 1022.6
20260502090540 23 194 9.7 14.5 0.00 0.00 0.00 33 1022.7
20260502071234 20 151 3.2 8.0 0.00 0.00 0.00 49 1023.3
20260502070733 20 163 4.8 11.3 0.00 0.00 0.00 50 1023.4
20260502070234 20 166 8.0 11.3 0.00 0.00 0.00 52 1023.3
20260502065816 19 156 3.2 6.4 0.00 0.00 0.00 53 1023.4
20260502065800 20 156 1.6 6.4 0.00 0.00 0.00 51 1023.3
20260502064734 18 152 4.8 6.4 0.00 0.00 0.00 54 1023.3
20260502064234 18 155 3.2 8.0 0.00 0.00 0.00 53 1023.4
20260502063732 18 151 4.8 8.0 0.00 0.00 0.00 54 1023.5
20260502063232 17 159 4.8 8.0 0.00 0.00 0.00 56 1023.5
20260502062734 17 152 6.4 8.0 0.00 0.00 0.00 56 1023.4
20260502062234 17 155 4.8 6.4 0.00 0.00 0.00 57 1023.5
20260502061733 17 155 4.8 6.4 0.00 0.00 0.00 57 1023.6
20260502061232 16 30 4.8 4.8 0.00 0.00 0.00 63 1023.5
20260502060733 16 10 1.6 1.6 0.00 0.00 0.00 63 1023.4
20260502060232 15 12 0.0 0.0 0.00 0.00 0.00 65 1023.4
20260502055732 15 12 0.0 0.0 0.00 0.00 0.00 65 1023.5
20260502055232 14 12 0.0 0.0 0.00 0.00 0.00 68 1023.5
20260502054826 12 12 0.0 1.6 0.00 0.00 0.00 73 1023.4
20260502054804 13 12 0.0 0.0 0.00 0.00 0.00 69 1023.5
20260502053733 11 12 0.0 1.6 0.00 0.00 0.00 77 1023.5
20260502053232 10 12 0.0 0.0 0.00 0.00 0.00 78 1023.5
20260502052735 9 12 0.0 0.0 0.00 0.00 0.00 81 1023.5
20260502052232 8 12 0.0 1.6 0.00 0.00 0.00 81 1023.4
20260502051731 7 12 0.0 1.6 0.00 0.00 0.00 82 1023.4
20260502051232 7 10 0.0 0.0 0.00 0.00 0.00 82 1023.4
20260502050731 6 10 0.0 0.0 0.00 0.00 0.00 82 1023.4
20260502050233 6 10 0.0 0.0 0.00 0.00 0.00 82 1023.4
20260502050049 6 10 0.0 0.0 0.00 0.00 0.00 82 1023.5
20260502050045 6 10 0.0 0.0 0.00 0.00 0.00 82 1023.5
20260502045012 5 10 0.0 0.0 0.00 0.00 0.00 81 1023.4
20260502044232 5 10 0.0 0.0 0.00 0.00 0.00 81 1023.4
20260502043706 5 10 0.0 0.0 0.00 0.00 0.00 81 1023.5
20260502043205 5 10 0.0 0.0 0.00 0.00 0.00 81 1023.4
20260502042704 5 10 0.0 0.0 0.00 0.00 0.00 81 1023.4
20260502042204 5 10 0.0 0.0 0.00 0.00 0.00 80 1023.3
20260502041703 5 10 0.0 0.0 0.00 0.00 0.00 80 1023.3
20260502041203 5 10 0.0 0.0 0.00 0.00 0.00 80 1023.3
20260502040946 5 10 0.0 0.0 0.00 0.00 0.00 80 1023.3
20260502040209 5 10 0.0 0.0 0.00 0.00 0.00 80 1023.3
20260502035703 5 10 0.0 0.0 0.00 0.00 0.00 80 1023.3
20260502035204 5 10 0.0 0.0 0.00 0.00 0.00 80 1023.3
20260502034703 5 10 0.0 0.0 0.00 0.00 0.00 80 1023.3
20260502034204 5 10 0.0 0.0 0.00 0.00 0.00 79 1023.4
20260502033949 5 10 0.0 0.0 0.00 0.00 0.00 79 1023.3
20260502033203 5 10 0.0 0.0 0.00 0.00 0.00 80 1023.3
20260502032704 5 10 0.0 0.0 0.00 0.00 0.00 80 1023.4
20260502032204 5 10 0.0 0.0 0.00 0.00 0.00 79 1023.4
20260502031710 5 10 0.0 0.0 0.00 0.00 0.00 79 1023.5
20260502031203 5 10 0.0 0.0 0.00 0.00 0.00 79 1023.5
20260502030704 5 10 0.0 0.0 0.00 0.00 0.00 79 1023.5
20260502030204 5 10 0.0 0.0 0.00 0.00 0.00 79 1023.6
20260502025705 5 10 0.0 0.0 0.00 0.00 0.00 79 1023.5
20260502025205 5 10 0.0 0.0 0.00 0.00 0.00 78 1023.5
20260502024705 5 10 0.0 0.0 0.00 0.00 0.00 78 1023.6
20260502024205 5 10 0.0 0.0 0.00 0.00 0.00 78 1023.6
20260502023705 5 10 0.0 0.0 0.00 0.00 0.00 78 1023.6
20260502023449 5 10 0.0 0.0 0.00 0.00 0.00 78 1023.6
20260502022654 6 10 0.0 0.0 0.00 0.00 0.00 78 1023.7
20260502022430 6 10 0.0 0.0 0.00 0.00 0.00 78 1023.7
20260502021652 6 10 0.0 0.0 0.00 0.00 0.00 78 1023.7
20260502021152 6 10 0.0 0.0 0.00 0.00 0.00 78 1023.7
20260502020654 6 10 0.0 0.0 0.00 0.00 0.00 78 1023.7
20260502020152 6 10 0.0 0.0 0.00 0.00 0.00 78 1023.8
20260502015652 6 10 0.0 0.0 0.00 0.00 0.00 78 1023.8
20260502015152 6 10 0.0 0.0 0.00 0.00 0.00 78 1023.7
20260502014651 6 10 0.0 1.6 0.00 0.00 0.00 77 1023.8
20260502014150 6 10 0.0 1.6 0.00 0.00 0.00 77 1023.8
20260502013652 6 10 0.0 3.2 0.00 0.00 0.00 77 1023.8
20260502013428 6 10 1.6 3.2 0.00 0.00 0.00 77 1023.9
20260502012650 6 10 0.0 1.6 0.00 0.00 0.00 77 1023.9
20260502012150 6 10 0.0 1.6 0.00 0.00 0.00 77 1023.9
20260502011651 6 10 1.6 1.6 0.00 0.00 0.00 77 1023.9
20260502011437 6 10 0.0 1.6 0.00 0.00 0.00 77 1023.9
20260502010650 6 10 0.0 0.0 0.00 0.00 0.00 77 1023.9
20260502010151 7 10 0.0 0.0 0.00 0.00 0.00 77 1023.9
20260502005933 7 10 0.0 0.0 0.00 0.00 0.00 76 1023.9
20260502005151 7 10 0.0 0.0 0.00 0.00 0.00 76 1024.2
20260502004651 7 10 0.0 0.0 0.00 0.00 0.00 76 1024.0
20260502004150 7 10 0.0 0.0 0.00 0.00 0.00 76 1024.0
20260502003649 7 10 0.0 1.6 0.00 0.00 0.00 76 1024.0
20260502003148 7 10 1.6 1.6 0.00 0.00 0.00 76 1024.0
20260502002930 7 10 1.6 1.6 0.00 0.00 0.00 76 1024.0
20260502002149 7 10 0.0 0.0 0.00 0.00 0.00 76 1024.0
20260502001649 7 10 0.0 0.0 0.00 0.00 0.00 76 1024.2
20260502001148 7 10 0.0 0.0 0.00 0.00 0.00 76 1024.0
20260502000648 7 10 0.0 0.0 0.00 0.00 0.00 75 1024.2
20260502000149 7 10 0.0 1.6 0.00 0.00 0.00 76 1024.0
20260501235648 7 10 0.0 1.6 0.00 0.00 0.00 75 1024.2
20260501235149 7 10 1.6 1.6 0.00 0.00 0.00 75 1024.2
20260501234649 7 10 0.0 1.6 0.00 0.00 0.00 75 1024.2
20260501234422 8 10 1.6 3.2 0.00 0.00 0.00 75 1024.2
20260501233929 8 10 0.0 3.2 0.00 0.00 0.00 75 1024.3
20260501233148 8 10 1.6 1.6 0.00 0.00 0.00 75 1024.3
20260501232933 8 10 0.0 0.0 0.00 0.00 0.00 75 1024.3
20260501232150 8 10 0.0 1.6 0.00 0.00 0.00 75 1024.4
20260501231649 8 10 0.0 3.2 0.00 0.00 0.00 74 1024.4
20260501231422 8 10 1.6 3.2 0.00 0.00 0.00 74 1024.4
20260501230930 8 10 0.0 0.0 0.00 0.00 0.00 74 1024.5
20260501230148 8 10 0.0 0.0 0.00 0.00 0.00 73 1024.5
20260501225648 8 10 0.0 1.6 0.00 0.00 0.00 73 1024.4
20260501225148 8 10 0.0 1.6 0.00 0.00 0.00 74 1024.5
20260501224638 8 10 0.0 3.2 0.00 0.00 0.00 74 1024.5
20260501224139 9 10 3.2 4.8 0.00 0.00 0.00 74 1024.5
20260501223920 9 10 3.2 4.8 0.00 0.00 0.00 74 1024.5
20260501223417 9 10 1.6 1.6 0.00 0.00 0.00 74 1024.5
20260501222920 9 10 1.6 1.6 0.00 0.00 0.00 73 1024.4
20260501222133 9 10 0.0 0.0 0.00 0.00 0.00 73 1024.5
20260501221634 9 10 0.0 0.0 0.00 0.00 0.00 73 1024.5
20260501221131 9 10 0.0 0.0 0.00 0.00 0.00 73 1024.4
20260501220630 9 10 0.0 0.0 0.00 0.00 0.00 72 1024.4
20260501220108 10 10 0.0 0.0 0.00 0.00 0.00 72 1024.5
20260501215608 10 10 0.0 0.0 0.00 0.00 0.00 72 1024.5
20260501215105 10 10 0.0 0.0 0.00 0.00 0.00 72 1024.5
20260501214607 10 10 0.0 0.0 0.00 0.00 0.00 71 1024.5
20260501214105 10 10 0.0 0.0 0.00 0.00 0.00 70 1024.5
20260501213606 10 10 0.0 1.6 0.00 0.00 0.00 70 1024.5
20260501213353 10 10 0.0 1.6 0.00 0.00 0.00 70 1024.4
20260501212554 10 10 0.0 0.0 0.00 0.00 0.00 69 1024.5
20260501212049 10 10 0.0 1.6 0.00 0.00 0.00 69 1024.5
20260501211549 -17 10 1.6 1.6 0.00 0.00 0.00 1024.5
20260501211005 11 10 1.6 1.6 0.00 0.00 0.00 68 1024.5
20260501210503 11 10 1.6 1.6 0.00 0.00 0.00 68 1024.5
20260501210004 11 10 0.0 0.0 0.00 0.00 0.00 67 1024.4
20260501205503 11 10 0.0 1.6 0.00 0.00 0.00 66 1024.5
20260501205004 11 10 0.0 1.6 0.00 0.00 0.00 66 1024.4
20260501204749 11 10 0.0 0.0 0.00 0.00 0.00 66 1024.4
20260501204002 11 10 0.0 0.0 0.00 0.00 0.00 65 1024.3
20260501203504 12 10 0.0 0.0 0.00 0.00 0.00 65 1024.4
20260501203003 12 10 0.0 1.6 0.00 0.00 0.00 65 1024.6
20260501202745 12 10 0.0 3.2 0.00 0.00 0.00 64 1024.5
20260501202003 12 10 1.6 3.2 0.00 0.00 0.00 63 1024.6
20260501201505 12 10 1.6 3.2 0.00 0.00 0.00 63 1024.6
20260501201250 12 10 3.2 3.2 0.00 0.00 0.00 63 1024.5
20260501200505 12 10 1.6 3.2 0.00 0.00 0.00 62 1024.6
20260501200005 13 10 1.6 3.2 0.00 0.00 0.00 61 1024.6
20260501195505 13 10 0.0 1.6 0.00 0.00 0.00 61 1024.6
20260501195004 13 10 1.6 1.6 0.00 0.00 0.00 60 1024.6
20260501194503 13 10 0.0 1.6 0.00 0.00 0.00 60 1024.6
20260501194002 13 10 1.6 3.2 0.00 0.00 0.00 59 1024.6
20260501193502 14 10 3.2 3.2 0.00 0.00 0.00 59 1024.7
20260501193247 14 10 1.6 3.2 0.00 0.00 0.00 58 1024.6
20260501192502 14 10 1.6 3.2 0.00 0.00 0.00 57 1024.6
20260501192243 14 10 1.6 4.8 0.00 0.00 0.00 56 1024.7
20260501191501 15 10 3.2 4.8 0.00 0.00 0.00 55 1024.6
20260501191001 15 40 3.2 3.2 0.00 0.00 0.00 55 1024.6
20260501190502 15 40 0.0 0.0 0.00 0.00 0.00 52 1024.5
20260501190238 15 40 0.0 0.0 0.00 0.00 0.00 52 1024.5
20260501185502 16 40 0.0 0.0 0.00 0.00 0.00 51 1024.4
20260501185001 16 40 0.0 0.0 0.00 0.00 0.00 50 1024.5
20260501184501 16 40 0.0 0.0 0.00 0.00 0.00 49 1024.5
20260501183959 17 40 0.0 0.0 0.00 0.00 0.00 48 1024.4
20260501183459 17 40 0.0 1.6 0.00 0.00 0.00 47 1024.5
20260501183242 18 39 0.0 3.2 0.00 0.00 0.00 45 1024.4
20260501182500 18 40 0.0 3.2 0.00 0.00 0.00 41 1024.4
20260501182000 19 39 1.6 3.2 0.00 0.00 0.00 41 1024.3
20260501181459 19 39 1.6 3.2 0.00 0.00 0.00 41 1024.4
20260501181002 20 40 3.2 3.2 0.00 0.00 0.00 38 1024.3
20260501180745 20 40 1.6 4.8 0.00 0.00 0.00 38 1024.0
20260501180000 20 40 3.2 4.8 0.00 0.00 0.00 37 1024.0
20260501175500 20 40 1.6 6.4 0.00 0.00 0.00 36 1024.2
20260501175000 20 40 3.2 6.4 0.00 0.00 0.00 36 1024.0
20260501174500 21 40 3.2 8.0 0.00 0.00 0.00 36 1024.0
20260501173958 21 39 4.8 8.0 0.00 0.00 0.00 36 1024.0
20260501173459 21 39 4.8 8.0 0.00 0.00 0.00 35 1024.0
20260501172959 21 46 4.8 8.0 0.00 0.00 0.00 35 1024.0
20260501172751 21 33 4.8 8.0 0.00 0.00 0.00 35 1024.0
20260501171959 21 33 3.2 8.0 0.00 0.00 0.00 34 1024.0
20260501171459 21 33 4.8 8.0 0.00 0.00 0.00 35 1023.9
20260501170958 21 37 6.4 8.0 0.00 0.00 0.00 35 1024.0
20260501170458 21 40 3.2 9.7 0.00 0.00 0.00 35 1024.0
20260501170341 22 20 8.0 16.1 0.00 0.00 0.00 34 1023.9
20260501170336 21 12 11.3 16.1 0.00 0.00 0.00 34 1024.2
20260501170328 21 6 6.4 11.3 0.00 0.00 0.00 34 1024.0
20260501164458 22 10 4.8 8.0 0.00 0.00 0.00 34 1024.0
20260501163956 22 68 4.8 11.3 0.00 0.00 0.00 34 1024.0